RYR7UH LICJ-LEBL

Flight info

Callsign RYR7UH
Flight time N/A
Altitude 34000
Route GIANO DCT ORVEX DCT EPIKU DCT GINOX DCT KIFMI/N0393F280 DCT ELVOP DCT MUREN/N0407F290 M601 VERSO
Aircraft B738/M-SDE2E3FGHIRWXY/LB1

Departure

Time 2026-05-04 16:42
Airport Falcone–Borsellino Airport (LICJ)

Arrival

Time N/A
Airport Josep Tarradellas Barcelona-El Prat Airport (LEBL)
Time Latitude Longitude Altitude Speed Heading
2026-05-04 16:17 38.18593 13.11018 64 ft 0 kts 67°
2026-05-04 16:34 38.18594 13.11020 60 ft 1 kts 67°
2026-05-04 16:35 38.18546 13.11185 61 ft 9 kts 130°
2026-05-04 16:35 38.18395 13.10901 62 ft 18 kts 246°
2026-05-04 16:36 38.18345 13.10757 62 ft 17 kts 248°
2026-05-04 16:36 38.18257 13.10488 62 ft 16 kts 248°
2026-05-04 16:37 38.18173 13.10246 59 ft 14 kts 248°
2026-05-04 16:37 38.18133 13.10121 65 ft 16 kts 248°
2026-05-04 16:37 38.18033 13.09829 63 ft 20 kts 246°
2026-05-04 16:38 38.17912 13.09480 60 ft 22 kts 249°
2026-05-04 16:39 38.17756 13.09007 62 ft 20 kts 247°
2026-05-04 16:39 38.17664 13.08883 61 ft 0 kts 217°
2026-05-04 16:40 38.17658 13.08877 63 ft 4 kts 217°
2026-05-04 16:40 38.17529 13.08763 65 ft 14 kts 192°
2026-05-04 16:41 38.17521 13.08918 68 ft 12 kts 67°
2026-05-04 16:41 38.18202 13.10939 88 ft 152 kts 66°
2026-05-04 16:42 38.19574 13.14959 1293 ft 173 kts 67°
2026-05-04 16:43 38.20648 13.18093 2012 ft 217 kts 66°
2026-05-04 16:43 38.22966 13.20766 2727 ft 240 kts 24°
2026-05-04 16:43 38.24526 13.21599 3179 ft 247 kts 22°
2026-05-04 16:44 38.31049 13.24979 5467 ft 258 kts 22°
2026-05-04 16:45 38.34378 13.26743 6789 ft 258 kts 21°
2026-05-04 16:46 38.39495 13.29319 8397 ft 282 kts
2026-05-04 16:46 38.42995 13.27708 10052 ft 279 kts 311°
2026-05-04 16:47 38.45355 13.23446 10806 ft 318 kts 302°
2026-05-04 16:47 38.47651 13.18320 11844 ft 341 kts 294°
2026-05-04 16:48 38.50408 13.09875 14348 ft 347 kts 292°
2026-05-04 16:48 38.51349 13.07019 15102 ft 351 kts 292°
2026-05-04 16:49 38.53294 13.01236 16635 ft 358 kts 293°
2026-05-04 16:49 38.55283 12.95322 18129 ft 366 kts 293°
2026-05-04 16:50 38.57305 12.89282 19460 ft 372 kts 293°
2026-05-04 16:50 38.59344 12.83165 20798 ft 376 kts 293°
2026-05-04 16:51 38.61394 12.76995 22024 ft 382 kts 292°
2026-05-04 16:51 38.62434 12.73862 22661 ft 384 kts 292°
2026-05-04 16:51 38.64533 12.67523 23833 ft 389 kts 292°
2026-05-04 16:52 38.66658 12.61090 24775 ft 394 kts 292°
2026-05-04 16:52 38.67732 12.57834 25281 ft 396 kts 292°
2026-05-04 16:53 38.69875 12.51327 26212 ft 401 kts 292°
2026-05-04 16:53 38.73151 12.41350 27504 ft 408 kts 292°
2026-05-04 16:54 38.74238 12.38034 27907 ft 410 kts 292°
2026-05-04 16:55 38.78621 12.24615 30256 ft 401 kts 292°
2026-05-04 16:55 38.80755 12.18056 31164 ft 399 kts 292°
2026-05-04 16:56 38.82878 12.11519 32184 ft 394 kts 292°
2026-05-04 16:56 38.86017 12.01825 33574 ft 390 kts 292°
2026-05-04 16:57 38.87054 11.98614 34029 ft 388 kts 292°
2026-05-04 16:57 38.89155 11.92098 34103 ft 401 kts 292°
2026-05-04 16:58 38.93423 11.78816 34099 ft 401 kts 292°
2026-05-04 17:00 38.99734 11.59065 34084 ft 397 kts 291°
2026-05-04 17:01 39.04926 11.42706 34086 ft 394 kts 292°
2026-05-04 17:02 39.09045 11.29659 34088 ft 394 kts 291°
2026-05-04 17:03 39.12135 11.19831 34079 ft 394 kts 291°
2026-05-04 17:03 39.15210 11.10017 34085 ft 395 kts 291°
2026-05-04 17:04 39.19328 10.96818 34077 ft 397 kts 291°
2026-05-04 17:05 39.23429 10.83611 34074 ft 398 kts 291°
2026-05-04 17:06 39.26499 10.73684 34077 ft 398 kts 291°
2026-05-04 17:07 39.29222 10.64847 34072 ft 398 kts 291°
2026-05-04 17:07 39.31607 10.57084 34068 ft 397 kts 290°
2026-05-04 17:08 39.34654 10.47133 34069 ft 397 kts 290°
2026-05-04 17:09 39.36686 10.40480 34064 ft 397 kts 290°
2026-05-04 17:09 39.38700 10.33867 34065 ft 397 kts 290°
2026-05-04 17:10 39.43735 10.17263 34073 ft 396 kts 290°
2026-05-04 17:11 39.45740 10.10625 34063 ft 396 kts 290°
2026-05-04 17:12 39.48737 10.00668 34061 ft 395 kts 290°
2026-05-04 17:13 39.53694 9.84118 34072 ft 395 kts 289°
2026-05-04 17:14 39.57656 9.70819 34089 ft 396 kts 289°
2026-05-04 17:15 39.60623 9.60815 34108 ft 396 kts 289°
2026-05-04 17:16 39.64241 9.48568 34115 ft 398 kts 289°
2026-05-04 17:17 39.68201 9.35094 34065 ft 400 kts 288°
2026-05-04 17:18 39.72161 9.21550 34069 ft 403 kts 288°
2026-05-04 17:19 39.76131 9.07904 34061 ft 404 kts 288°
2026-05-04 17:20 39.80090 8.94226 34053 ft 405 kts 288°
2026-05-04 17:20 39.83057 8.83929 34043 ft 404 kts 288°
2026-05-04 17:21 39.86974 8.70272 34049 ft 403 kts 287°
2026-05-04 17:22 39.88932 8.63418 34038 ft 403 kts 287°
2026-05-04 17:23 39.92818 8.49760 34037 ft 402 kts 287°
2026-05-04 17:24 39.95723 8.39504 34045 ft 402 kts 287°
2026-05-04 17:25 39.99559 8.25902 34019 ft 399 kts 286°
2026-05-04 17:26 40.03356 8.12361 34028 ft 396 kts 286°
2026-05-04 17:27 40.08056 7.95500 34030 ft 396 kts 285°
2026-05-04 17:28 40.11813 7.81939 34018 ft 399 kts 285°
2026-05-04 17:29 40.17440 7.61500 34018 ft 402 kts 285°
2026-05-04 17:31 40.22168 7.44203 34014 ft 402 kts 285°
2026-05-04 17:32 40.26824 7.27047 34004 ft 400 kts 284°
2026-05-04 17:33 40.30529 7.13313 33998 ft 399 kts 284°
2026-05-04 17:34 40.34201 6.99624 34000 ft 398 kts 284°
2026-05-04 17:35 40.38768 6.82493 33997 ft 398 kts 283°
2026-05-04 17:36 40.40592 6.75615 33993 ft 399 kts 283°
2026-05-04 17:36 40.42404 6.68766 33989 ft 400 kts 283°
2026-05-04 17:37 40.44230 6.61845 33981 ft 401 kts 283°
2026-05-04 17:37 40.46054 6.54913 33980 ft 402 kts 283°
2026-05-04 17:38 40.47879 6.47958 33977 ft 402 kts 283°
2026-05-04 17:38 40.49700 6.40998 33980 ft 404 kts 283°
2026-05-04 17:39 40.52423 6.30551 33967 ft 405 kts 283°
2026-05-04 17:39 40.54247 6.23531 33965 ft 405 kts 283°
2026-05-04 17:40 40.56068 6.16501 33974 ft 406 kts 283°
2026-05-04 17:40 40.57885 6.09465 33968 ft 406 kts 283°
2026-05-04 17:41 40.59687 6.02466 33978 ft 407 kts 283°
2026-05-04 17:41 40.61501 5.95402 33965 ft 406 kts 283°
2026-05-04 17:42 40.63307 5.88353 33966 ft 405 kts 283°
2026-05-04 17:42 40.65092 5.81359 33963 ft 404 kts 283°
2026-05-04 17:43 40.66875 5.74355 33962 ft 404 kts 283°
2026-05-04 17:43 40.68659 5.67327 33970 ft 403 kts 282°
2026-05-04 17:44 40.70426 5.60347 33961 ft 403 kts 282°
2026-05-04 17:44 40.72196 5.53329 33960 ft 402 kts 282°
2026-05-04 17:45 40.73953 5.46346 33953 ft 402 kts 282°
2026-05-04 17:45 40.75713 5.39332 33953 ft 402 kts 282°
2026-05-04 17:46 40.77454 5.32369 33982 ft 402 kts 281°
2026-05-04 17:46 40.79203 5.25357 33967 ft 402 kts 281°
2026-05-04 17:47 40.80952 5.18322 33952 ft 402 kts 281°
2026-05-04 17:47 40.82693 5.11300 33944 ft 402 kts 281°
2026-05-04 17:48 40.84420 5.04314 33945 ft 402 kts 281°
2026-05-04 17:48 40.85281 5.00831 33921 ft 391 kts 281°
2026-05-04 17:48 40.86118 4.97468 33916 ft 375 kts 280°
2026-05-04 17:49 40.87707 4.91026 33586 ft 363 kts 279°
2026-05-04 17:49 40.88471 4.87909 33218 ft 357 kts 279°
2026-05-04 17:49 40.89229 4.84810 32889 ft 353 kts 279°
2026-05-04 17:50 40.89978 4.81736 32516 ft 349 kts 279°
2026-05-04 17:50 40.90719 4.78696 32156 ft 346 kts 279°
2026-05-04 17:50 40.91455 4.75672 31812 ft 343 kts 279°
2026-05-04 17:50 40.92183 4.72682 31463 ft 340 kts 279°
2026-05-04 17:51 40.92906 4.69706 31109 ft 338 kts 279°
2026-05-04 17:51 40.93623 4.66753 30770 ft 335 kts 279°
2026-05-04 17:51 40.94333 4.63828 30436 ft 332 kts 279°
2026-05-04 17:51 40.95036 4.60924 30103 ft 330 kts 279°
2026-05-04 17:52 40.95727 4.58069 29736 ft 328 kts 279°
2026-05-04 17:52 40.96419 4.55206 29386 ft 325 kts 279°
2026-05-04 17:52 40.97105 4.52367 29001 ft 322 kts 279°
2026-05-04 17:52 40.97784 4.49552 28668 ft 320 kts 279°
2026-05-04 17:53 40.98456 4.46760 28333 ft 317 kts 279°
2026-05-04 17:53 40.99124 4.43980 27986 ft 318 kts 280°
2026-05-04 17:53 40.99802 4.41138 27648 ft 329 kts 280°
2026-05-04 17:53 41.00499 4.38212 27286 ft 335 kts 280°
2026-05-04 17:54 41.01195 4.35309 26932 ft 332 kts 281°
2026-05-04 17:54 41.01892 4.32412 26571 ft 328 kts 281°
2026-05-04 17:54 41.02582 4.29542 26225 ft 325 kts 281°
2026-05-04 17:54 41.03263 4.26697 25881 ft 321 kts 281°
2026-05-04 17:55 41.03926 4.23924 25551 ft 318 kts 281°
2026-05-04 17:55 41.04590 4.21140 25208 ft 315 kts 281°
2026-05-04 17:55 41.05246 4.18386 24911 ft 312 kts 281°
2026-05-04 17:55 41.05896 4.15650 24587 ft 310 kts 281°
2026-05-04 17:56 41.06542 4.12927 24237 ft 309 kts 281°
2026-05-04 17:56 41.07183 4.10220 23908 ft 307 kts 281°
2026-05-04 17:56 41.07821 4.07526 23584 ft 305 kts 281°
2026-05-04 17:56 41.08455 4.04845 23210 ft 304 kts 282°
2026-05-04 17:57 41.09084 4.02183 22842 ft 301 kts 282°
2026-05-04 17:57 41.09708 3.99539 22483 ft 301 kts 282°
2026-05-04 17:57 41.10332 3.96887 22241 ft 303 kts 282°
2026-05-04 17:57 41.10967 3.94179 21990 ft 310 kts 282°
2026-05-04 17:58 41.11615 3.91420 21740 ft 314 kts 282°
2026-05-04 17:58 41.12258 3.88684 21247 ft 317 kts 282°
2026-05-04 17:58 41.12911 3.85908 20856 ft 314 kts 282°
2026-05-04 17:58 41.13560 3.83147 20510 ft 311 kts 282°
2026-05-04 17:59 41.14203 3.80403 20184 ft 309 kts 282°
2026-05-04 17:59 41.14837 3.77694 19852 ft 306 kts 282°
2026-05-04 17:59 41.15800 3.72213 18950 ft 306 kts 274°
2026-05-04 18:00 41.16055 3.69452 18572 ft 305 kts 272°
2026-05-04 18:00 41.16296 3.66664 18248 ft 303 kts 273°
2026-05-04 18:00 41.16541 3.63899 17880 ft 300 kts 273°
2026-05-04 18:00 41.16793 3.61156 17539 ft 298 kts 273°
2026-05-04 18:01 41.17050 3.58429 17215 ft 295 kts 273°
2026-05-04 18:01 41.17309 3.55736 16899 ft 292 kts 273°
2026-05-04 18:01 41.17563 3.53111 16598 ft 289 kts 273°
2026-05-04 18:02 41.18076 3.47867 15987 ft 284 kts 273°
2026-05-04 18:02 41.18329 3.45276 15689 ft 282 kts 273°
2026-05-04 18:02 41.18580 3.42703 15393 ft 279 kts 273°
2026-05-04 18:02 41.18829 3.40155 15101 ft 277 kts 273°
2026-05-04 18:03 41.19076 3.37618 14800 ft 275 kts 273°
2026-05-04 18:03 41.19317 3.35136 14528 ft 274 kts 273°
2026-05-04 18:03 41.19560 3.32634 14248 ft 272 kts 272°
2026-05-04 18:03 41.19801 3.30146 13949 ft 271 kts 272°
2026-05-04 18:04 41.20040 3.27666 13653 ft 270 kts 272°
2026-05-04 18:04 41.20279 3.25197 13331 ft 268 kts 272°
2026-05-04 18:04 41.20670 3.21127 12834 ft 265 kts 272°
2026-05-04 18:05 41.20977 3.17922 12453 ft 263 kts 272°
2026-05-04 18:05 41.21199 3.15519 12168 ft 261 kts 272°
2026-05-04 18:05 41.21343 3.13907 11977 ft 260 kts 272°
2026-05-04 18:05 41.21551 3.11555 11702 ft 259 kts 272°
2026-05-04 18:06 41.22201 3.06735 11194 ft 274 kts 281°
2026-05-04 18:06 41.22746 3.04277 10838 ft 279 kts 282°
2026-05-04 18:06 41.23310 3.01817 10527 ft 277 kts 282°
2026-05-04 18:07 41.23866 2.99380 10232 ft 275 kts 282°
2026-05-04 18:07 41.24408 2.96965 10037 ft 269 kts 282°
2026-05-04 18:07 41.24930 2.94619 9854 ft 263 kts 282°
2026-05-04 18:07 41.25439 2.92294 9561 ft 261 kts 282°
2026-05-04 18:08 41.25940 2.89994 9284 ft 258 kts 282°
2026-05-04 18:08 41.26435 2.87707 9028 ft 255 kts 281°
2026-05-04 18:08 41.26921 2.85451 8761 ft 253 kts 282°
2026-05-04 18:08 41.27402 2.83210 8500 ft 251 kts 282°
2026-05-04 18:09 41.28350 2.78785 7985 ft 246 kts 282°
2026-05-04 18:09 41.29270 2.74471 7495 ft 242 kts 282°
2026-05-04 18:10 41.29727 2.72326 7249 ft 241 kts 282°
2026-05-04 18:10 41.30181 2.70192 7005 ft 239 kts 282°
2026-05-04 18:10 41.30631 2.68071 6755 ft 238 kts 282°
2026-05-04 18:10 41.31079 2.65964 6570 ft 236 kts 282°
2026-05-04 18:11 41.31529 2.63836 6341 ft 243 kts 282°
2026-05-04 18:11 41.31993 2.61637 6094 ft 251 kts 282°
2026-05-04 18:11 41.32467 2.59395 5817 ft 250 kts 282°
2026-05-04 18:11 41.32936 2.57178 5553 ft 248 kts 282°
2026-05-04 18:12 41.33402 2.54975 5294 ft 246 kts 282°
2026-05-04 18:12 41.33864 2.52791 5041 ft 244 kts 282°
2026-05-04 18:12 41.34321 2.50619 4797 ft 242 kts 282°
2026-05-04 18:12 41.34774 2.48471 4542 ft 240 kts 282°
2026-05-04 18:13 41.35218 2.46361 4432 ft 232 kts 282°
2026-05-04 18:13 41.35647 2.44323 4326 ft 225 kts 282°
2026-05-04 18:13 41.36466 2.40423 4134 ft 213 kts 281°
2026-05-04 18:14 41.36861 2.38529 4054 ft 212 kts 281°
2026-05-04 18:14 41.37252 2.36657 3864 ft 214 kts 281°
2026-05-04 18:14 41.37650 2.34751 3645 ft 214 kts 281°
2026-05-04 18:15 41.37605 2.31117 3390 ft 191 kts 243°
2026-05-04 18:15 41.36585 2.27931 2887 ft 182 kts 246°
2026-05-04 18:15 41.36071 2.26408 2635 ft 178 kts 245°
2026-05-04 18:16 41.35568 2.24942 2404 ft 168 kts 245°
2026-05-04 18:16 41.35101 2.23583 2165 ft 155 kts 245°
2026-05-04 18:16 41.34676 2.22348 1984 ft 137 kts 245°
2026-05-04 18:17 41.33932 2.20178 1694 ft 137 kts 245°
2026-05-04 18:17 41.33523 2.18989 1449 ft 140 kts 245°
2026-05-04 18:17 41.32710 2.16617 1072 ft 140 kts 244°
2026-05-04 18:18 41.32319 2.15478 883 ft 134 kts 245°
2026-05-04 18:18 41.31937 2.14368 708 ft 131 kts 244°
2026-05-04 18:18 41.31554 2.13263 547 ft 131 kts 246°
2026-05-04 18:18 41.31175 2.12151 369 ft 133 kts 245°
2026-05-04 18:19 41.30432 2.09959 49 ft 127 kts 244°
2026-05-04 18:19 41.30101 2.08979 31 ft 109 kts 245°
2026-05-04 18:19 41.29714 2.07830 392 ft 153 kts 246°
2026-05-04 18:20 41.29260 2.06437 1320 ft 170 kts 242°